Startseite
Über Mich
AHP4
Galerie
Sehschlangen
Tourenbuch
Bookmarks
Elektronik
Bewertung
Geschichten
[Tagesmessung] [Jahreswerte] [Information]

Messwerte vom 30.01.2022

Die letzten Messwerte von 23:58:47 Uhr:
KategorieMesswert
Temperatur [°C]3
Luftdruck [mBar]1002
Sonneneinstrahlung0
Wind [km/h]0 aus Nordwest
Niederschlag [l/m²]0
rel.Luftfeucht.81.5%
CO2 [ppm]708

Diagramme
Messwerte vom 30.01.2022
Tagesaggregation
KategorieMinimumMaximumSchnittSumme
Temperatur [°C]364.7583
Luftdruck [mBar]99810061002.1542
Sonneneinstrahlung21765.4938
Wind [km/h]44
rF [%]56.896.676.72
Niederschlag [l/m²]0.2575
CO2 [ppm]394722437.2
Einordnung alsKalter Tag

Messungen an benachbarten Tagen: Zur Jahresaggregation 2022
Tabelle aller Messwerte
UhrzeitTemperatur [°C]Luftdruck [mBar]SonneWind [km/h]RichtungRegen [l/m²]rF [%]CO2 [ppm]
00:01:46 6 999 0 20 S 0 77 404
00:04:45 6 998 0 9 W 0 77.3 404
00:07:46 6 998 0 9 W 0 77.8 407
00:10:47 6 998 0 9 NW 0 78.3 407
00:13:48 5 998 0 21 SO 0 78.9 401
00:16:47 5 998 0 14 SW 0 79.3 407
00:19:46 5 998 0 10 SW 0 79.3 404
00:22:47 6 998 0 9 SW 0 79.5 407
00:25:45 6 998 0 6 NO 0 79.5 404
00:28:46 6 999 0 12 W 0 78.8 407
00:31:48 6 998 0 18 S 0 78 406
00:34:47 6 998 0 12 S 0 78 407
00:37:50 6 999 0 14 NW 0 78.2 406
00:40:44 6 998 0 9 W 0 78.4 403
00:43:47 6 998 0 6 S 0 77.6 407
00:46:45 6 998 0 15 W 0 77 405
00:49:47 6 998 0 25 SO 0 76.3 403
00:52:46 6 998 0 8 W 0 76.3 404
00:55:46 6 998 0 15 W 0 76.4 406
00:58:46 6 998 0 15 S 0 77 404
01:01:45 6 998 0 18 W 0 77.6 407
01:04:45 6 998 0 22 N 0 78.5 404
01:07:47 6 998 0 3 SW 0 80.1 404
01:10:46 6 998 0 8 SW 0 80.9 407
01:13:47 6 999 0 16 SW 0 81.7 406
01:16:46 6 998 0 13 NO 0 82.4 406
01:19:47 6 998 0 17 NW 0 83.2 407
01:22:47 5 998 0 18 NW 0 85.2 404
01:25:48 5 998 0 16 NW 0 86.5 406
01:28:48 5 998 0 16 W 0 86.7 404
01:31:48 5 998 0 19 W 0 86.7 404
01:34:48 5 998 0 12 SW 0 86.2 407
01:37:45 5 998 0 6 S 0 85.7 404
01:40:45 5 998 0 16 W 0 85.3 406
01:43:48 5 998 0 11 S 0 83.7 407
01:46:48 5 998 0 28 SO 0 82 407
01:49:52 6 998 0 25 SW 0 81.9 403
01:52:47 6 998 0 22 W 0 81.8 407
01:55:45 6 998 0 15 N 0 82.1 404
01:58:48 5 999 0 22 W 0 82.7 405
02:01:47 5 998 0 10 SW 0 83 407
02:04:46 5 998 0 19 N 0 83.6 404
02:07:47 5 998 0 16 W 0 84.5 406
02:10:47 5 998 0 11 NW 0 85.4 403
02:13:50 5 998 0 21 SO 0 85.7 407
02:16:48 5 998 0 10 SW 0 85.8 407
02:19:47 5 999 0 7 N 0 87.3 406
02:22:46 5 999 0 14 NW 0 87.9 404
02:25:48 5 998 0 20 NW 0 90 407
02:28:46 4 999 0 10 S 0 92.2 407
02:31:48 4 999 0 11 SW 0 94.1 404
02:34:46 4 999 0 11 SO 0 95.3 407
02:37:47 4 998 0 17 S 0 96.5 406
02:40:48 4 998 0 18 SW 0 96.6 404
02:43:46 4 998 0 6 W 0 96.6 411
02:46:48 4 998 0 22 W 0 96.6 407
02:49:47 4 998 0 9 SW 0 96.6 404
02:52:45 4 998 0 13 W 0 96.3 407
02:55:46 4 998 0 16 SW 0 95.3 404
02:58:49 4 998 0 17 W 0 94.2 404
03:01:46 4 998 0 16 NW 0 93.3 404
03:04:45 4 998 0 15 W 0 92.1 404
03:07:47 5 998 0 13 S 0 91.6 407
03:10:46 5 998 0 24 SW 0 90.7 406
03:13:49 5 998 0 24 NW 0 89.9 407
03:16:48 5 998 0 14 SW 0 89 404
03:19:48 5 998 0 17 SW 0 88.6 405
03:22:50 5 998 0 19 W 0 88.7 406
03:25:48 5 998 0 20 SW 0 88.4 407
03:28:48 5 999 0 11 NW 0 88.4 407
03:31:47 5 998 0 17 SW 0 87.9 406
03:34:45 5 998 0 15 S 0 87.5 406
03:37:47 5 998 0 12 SW 0 87.7 404
03:40:48 5 998 0 13 S 0 87.4 404
03:43:47 5 998 0 21 NW 0 87.1 408
03:46:45 5 998 0 22 W 0 86.9 404
03:49:49 5 998 0 28 SW 0 86.8 406
03:52:47 5 998 0 9 W 0 86.2 407
03:55:49 5 998 0 20 W 0 85.9 404
03:58:47 5 998 0 18 O 0 85.6 404
04:01:49 5 998 0 19 SW 0 85.3 404
04:04:47 5 998 0 30 W 0 85 407
04:07:46 5 998 0 12 W 0 84.3 407
04:10:46 5 998 0 11 SW 0 83.7 407
04:13:46 5 998 0 15 NO 0 83.6 407
04:16:46 5 998 0 13 SW 0 83.5 401
04:19:48 5 999 0 13 S 0 82.8 407
04:22:48 5 998 0 17 W 0 82.6 406
04:25:45 5 998 0 14 S 0 82 404
04:28:47 5 998 0 18 W 0 83 404
04:31:46 5 998 0 7 SW 0 84.4 404
04:34:47 5 998 0 12 W 0 85.8 407
04:37:45 5 998 0 11 N 0 86.6 404
04:40:46 5 998 0 22 W 0 87 407
04:43:46 5 998 0 24 W 0 87.2 407
04:46:47 5 998 0 15 SW 0 87.7 405
04:49:48 5 999 0 17 SW 0 88.8 407
04:52:48 4 999 0 19 NW 0 89.5 404
04:55:46 4 998 0 8 SW 0 89.4 404
04:58:45 5 999 0 26 W 0 88.6 404
05:01:49 5 998 0 30 NW 0 87.5 404
05:04:49 5 999 0 15 SW 0 87.1 407
05:07:46 5 998 0 17 SW 0 86.5 404
05:10:47 5 999 0 10 SW 0 86.3 406
05:13:46 5 999 0 6 W 0 86.2 407
05:16:47 5 999 0 21 NW 0 86.4 407
05:19:47 5 998 0 22 SW 0 86.4 404
05:22:46 5 999 0 12 SW 0 86.5 403
05:25:47 5 998 0 16 SW 0 86.4 404
05:28:44 5 998 0 7 S 0 86.1 404
05:31:49 5 999 0 12 SW 0 86.2 406
05:34:49 5 999 0 19 NW 0 86.1 404
05:37:46 5 999 0 8 W 0 85.7 407
05:40:47 5 999 0 6 W 0 85.7 403
05:43:46 5 998 0 27 W 0 85.6 404
05:46:49 5 999 0 5 NW 0 85.5 407
05:49:47 5 999 0 7 W 0 86 404
05:52:47 5 999 0 13 NW 0 86.1 404
05:55:46 5 1000 0 7 N 0 86.3 404
05:58:49 4 999 0 12 SW 0.2575 89.6 404
06:01:50 4 1000 0 12 NW 0 90.7 404
06:04:47 4 999 0 9 W 0 92.5 404
06:07:46 4 1000 0 14 NW 0 93.5 404
06:10:46 4 999 0 4 S 0 94.8 407
06:13:46 4 999 0 7 SW 0 95.7 407
06:16:47 4 999 0 13 SW 0 96.1 408
06:19:50 4 999 0 19 SO 0 95.1 406
06:22:49 4 1000 0 11 SW 0 94.5 401
06:25:47 4 999 0 8 NW 0 93.3 404
06:28:47 4 1000 0 10 NO 0 92.8 404
06:31:49 4 999 0 22 SW 0 90.7 404
06:34:47 4 999 0 16 S 0 90.4 407
06:37:47 4 999 0 20 W 0 89.2 404
06:40:49 4 1000 0 15 NW 0 88.3 403
06:43:48 4 999 0 20 S 0 87.9 404
06:46:45 4 999 0 23 W 0 87.4 407
06:49:46 4 999 0 13 W 0 87.3 406
06:52:45 4 999 0 7 W 0 86.7 403
06:55:48 4 999 0 8 SO 0 86.5 406
06:58:44 4 999 0 9 S 0 86.4 404
07:01:47 4 999 0 14 SW 0 86.4 404
07:04:50 4 999 0 22 NW 0 86 404
07:07:47 4 1000 0 12 W 0 85.8 403
07:10:47 4 999 0 8 SW 0 85.3 407
07:13:48 4 1000 0 13 SW 0 85.7 404
07:16:48 4 999 0 10 SO 0 85.9 404
07:19:45 4 1000 0 7 W 0 86.1 407
07:22:48 4 999 0 18 W 0 85.6 404
07:25:47 4 999 0 17 SW 0 85.7 404
07:28:46 4 999 0 9 SW 0 86.1 407
07:31:47 4 1000 0 10 W 0 86.2 404
07:34:47 4 999 0 21 S 0 86.3 404
07:37:49 4 1000 3 8 S 0 86.1 406
07:40:46 4 1000 5 17 SW 0 85.9 401
07:43:50 4 1001 8 31 W 0 85 408
07:46:49 4 1000 12 13 NW 0 84.8 406
07:49:49 4 1001 17 12 NW 0 84.7 401
07:52:47 4 1001 21 4 SW 0 84.5 407
07:55:47 4 1000 26 14 SW 0 84.1 407
07:58:47 4 1001 32 15 SW 0 83.5 401
08:01:48 4 1001 38 14 W 0 82.8 404
08:04:49 4 1002 47 23 N 0 82.3 404
08:07:49 4 1001 57 6 SW 0 82.3 404
08:10:48 4 1000 71 8 S 0 82.2 410
08:13:50 4 1000 76 20 W 0 82.1 407
08:16:48 4 1000 85 8 SW 0 81.7 413
08:19:47 4 1001 87 7 NW 0 81.5 410
08:22:48 4 1001 94 19 NW 0 81.9 413
08:25:47 4 1000 100 6 S 0 81.9 410
08:28:49 4 1001 91 15 W 0 82 407
08:31:47 4 1001 95 16 SW 0 81.4 419
08:34:48 4 1001 102 22 SW 0 81.4 407
08:37:47 4 1001 105 8 SW 0 81.1 407
08:40:49 4 1001 113 11 NW 0 80.7 404
08:43:48 4 1002 118 17 NW 0 81 407
08:46:50 4 1002 114 21 SW 0 81.2 404
08:49:48 4 1002 113 13 W 0 81.2 407
08:52:47 4 1001 111 12 0 81.1 407
08:55:47 4 1002 121 16 W 0 81 407
08:58:48 4 1002 125 10 S 0 81 404
09:01:48 4 1002 136 17 SW 0 80.9 404
09:04:51 5 1002 143 20 W 0 80.7 404
09:07:50 5 1002 152 9 SW 0 80.2 404
09:10:47 5 1002 162 8 W 0 80.3 404
09:13:48 5 1001 161 13 W 0 79.4 407
09:16:50 5 1002 159 20 NO 0 79.1 401
09:19:48 5 1002 157 11 SW 0 78.8 407
09:22:47 5 1002 154 13 SO 0 78.8 407
09:25:52 5 1002 160 16 W 0 77.8 404
09:28:47 5 1002 159 17 W 0 77.2 404
09:31:47 5 1002 160 13 NW 0 77.1 408
09:34:49 5 1002 166 21 NW 0 77.3 404
09:37:50 5 1002 178 8 NO 0 75.7 404
09:40:49 5 1002 172 15 W 0 75.6 407
09:43:50 5 1002 171 5 W 0 75.5 407
09:46:49 5 1002 177 22 SW 0 75.4 407
09:49:48 5 1002 181 19 N 0 73.9 408
09:52:47 5 1002 178 8 NO 0 73.4 407
09:55:49 5 1002 177 24 SW 0 72.4 394
09:58:46 5 1002 171 13 W 0 71.6 407
10:01:46 5 1002 177 6 S 0 72.4 404
10:04:48 5 1002 176 25 W 0 71.8 404
10:07:50 5 1002 200 24 NW 0 71.5 407
10:10:46 5 1002 194 7 W 0 71.6 407
10:13:51 5 1002 196 20 SW 0 71.6 405
10:16:49 5 1002 201 20 NW 0 71.9 406
10:19:50 5 1002 198 11 SO 0 71.4 407
10:22:47 5 1003 192 9 W 0 71.5 404
10:25:47 5 1003 195 9 SW 0 71.2 404
10:28:46 5 1003 199 15 S 0 71.7 403
10:31:49 5 1003 198 8 SW 0 71.3 404
10:34:48 5 1002 202 23 W 0 71.4 406
10:37:48 5 1003 204 7 NW 0 70.9 407
10:40:49 5 1003 202 24 SW 0 71.2 406
10:43:47 5 1002 199 11 NW 0 70.8 407
10:46:48 5 1002 199 13 W 0 71.2 407
10:49:49 5 1003 196 16 W 0 71 404
10:52:46 5 1002 198 13 W 0 71.1 407
10:55:51 5 1003 198 12 W 0 71.6 407
10:58:48 5 1003 189 11 NW 0 72.2 406
11:01:46 5 1003 193 8 W 0 71.5 401
11:04:45 5 1003 196 9 W 0 71.6 407
11:07:47 5 1003 200 6 NW 0 71.3 407
11:10:49 5 1003 197 11 NW 0 70.7 406
11:13:47 5 1003 201 22 W 0 70.7 404
11:16:49 6 1003 194 8 W 0 70.2 404
11:19:48 5 1003 192 19 NW 0 70.4 407
11:22:48 6 1003 198 12 W 0 70.2 404
11:25:47 6 1003 196 7 N 0 71.2 407
11:28:49 6 1003 201 16 SW 0 71.1 404
11:31:48 6 1003 201 20 W 0 70.3 407
11:34:48 6 1003 205 29 W 0 69.7 404
11:37:47 6 1003 198 11 W 0 69.5 407
11:40:48 6 1002 200 24 S 0 69.9 407
11:43:48 6 1003 197 36 W 0 69.5 404
11:46:47 6 1003 196 9 W 0 68.4 407
11:49:49 6 1003 190 17 NW 0 69.8 404
11:52:49 6 1003 194 7 NW 0 69.8 407
11:55:50 6 1004 195 27 W 0 70.3 407
11:58:48 6 1004 196 12 W 0 70.7 404
12:01:49 6 1003 198 24 W 0 70.4 405
12:04:47 6 1003 197 24 W 0 69.5 403
12:07:48 6 1004 198 12 N 0 69.4 404
12:10:53 6 1003 195 15 SW 0 69.6 408
12:13:47 6 1003 198 13 W 0 69.3 405
12:16:47 6 1004 209 15 W 0 68.9 407
12:19:48 6 1003 207 40 NW 0 68.3 404
12:22:47 6 1004 211 13 W 0 68.2 407
12:25:48 6 1004 216 21 SW 0 68.5 404
12:28:47 6 1004 211 18 O 0 67.4 407
12:31:47 6 1004 217 21 W 0 67 406
12:34:48 6 1003 212 16 N 0 66.9 404
12:37:47 6 1005 212 18 W 0 66.7 407
12:40:49 6 1004 207 24 W 0 65.5 407
12:43:47 6 1004 214 19 W 0 65.1 404
12:46:49 6 1004 202 23 N 0 65 407
12:49:49 6 1004 212 13 NW 0 65.2 404
12:52:48 6 1004 203 21 NW 0 65.8 406
12:55:49 6 1004 211 20 W 0 66.1 407
12:58:49 6 1004 204 22 NW 0 66.4 407
13:01:49 6 1005 210 13 SW 0 66.3 404
13:04:49 6 1005 210 14 O 0 64.8 407
13:07:49 6 1004 212 13 N 0 64.3 404
13:10:47 6 1004 210 21 SW 0 64.5 406
13:13:50 6 1005 207 24 NW 0 64.5 408
13:16:46 6 1005 200 14 W 0 64.5 407
13:19:49 6 1005 204 12 NW 0 64.8 407
13:22:49 6 1004 203 14 NW 0 64.9 407
13:25:49 6 1004 195 10 S 0 66.8 404
13:28:47 6 1004 193 11 SO 0 66.9 407
13:31:48 6 1004 196 27 W 0 66.4 407
13:34:51 6 1005 213 28 NW 0 65.3 405
13:37:47 6 1004 197 37 SW 0 66.5 404
13:40:47 6 1005 201 44 N 0 64.5 407
13:43:46 6 1005 200 33 W 0 63.3 404
13:46:49 6 1004 198 37 W 0 63 407
13:49:51 6 1004 202 16 W 0 63.7 407
13:52:48 6 1005 201 30 NW 0 64 404
13:55:48 6 1004 193 23 NW 0 64.8 405
13:58:48 6 1004 206 4 NW 0 66.1 407
14:01:48 6 1005 205 14 W 0 66.5 407
14:04:48 6 1004 202 25 W 0 65.3 404
14:07:49 6 1004 200 20 W 0 64.4 404
14:10:50 6 1004 194 23 NW 0 65.8 408
14:13:49 6 1004 202 23 NO 0 66.1 405
14:16:51 6 1004 205 15 SW 0 66 407
14:19:47 6 1004 202 23 W 0 66 406
14:22:49 6 1004 208 12 NW 0 65.9 404
14:25:50 6 1004 205 19 NW 0 66.2 407
14:28:48 6 1004 201 14 N 0 65.7 404
14:31:49 6 1004 193 20 NW 0 65.5 406
14:34:50 6 1004 193 11 SW 0 65.1 405
14:37:48 6 1004 197 11 NW 0 64.7 401
14:40:48 6 1004 193 12 W 0 66 407
14:43:46 6 1004 186 27 W 0 66.1 405
14:46:46 6 1004 184 8 W 0 65.4 404
14:49:49 6 1004 179 6 W 0 66.1 404
14:52:47 6 1004 185 38 W 0 66.1 407
14:55:49 6 1005 185 20 SW 0 65.4 406
14:58:47 6 1005 194 14 W 0 65.9 407
15:01:47 6 1005 192 12 N 0 65.8 407
15:04:49 6 1005 185 19 NW 0 64 406
15:07:49 6 1005 198 23 SW 0 63.5 407
15:10:48 6 1006 209 31 NW 0 63.2 407
15:13:49 6 1005 197 17 NW 0 62.7 407
15:16:50 6 1005 193 22 NW 0 63.2 407
15:19:50 6 1005 199 19 W 0 63.4 404
15:22:50 6 1005 200 38 N 0 63.8 404
15:25:47 6 1006 209 11 SO 0 64 404
15:28:49 5 1005 206 17 NW 0 64.5 404
15:31:48 5 1005 191 13 W 0 64.6 407
15:34:46 5 1005 189 11 S 0 64.7 407
15:37:47 5 1006 180 12 W 0 63.8 406
15:40:50 5 1006 184 11 NW 0 64.5 407
15:43:46 5 1005 194 13 W 0 65.1 407
15:46:49 5 1005 184 10 SW 0 65.5 404
15:49:32 4 1005 185 28 W 0 56.8 407
15:52:47 6 1005 175 33 0 63.1 404
15:55:49 6 1005 180 20 NW 0 63.4 401
15:58:48 5 1005 152 19 W 0 64 407
16:01:50 5 1005 148 24 NW 0 64 404
16:04:46 5 1005 148 9 W 0 64.5 404
16:07:48 5 1005 140 40 W 0 65.2 407
16:10:49 5 1005 129 29 W 0 64.7 409
16:13:48 5 1005 139 19 NW 0 64.5 404
16:16:50 5 1005 148 23 NW 0 63.8 404
16:19:47 5 1006 145 14 W 0 63.1 407
16:22:50 5 1005 139 19 NW 0 63.4 407
16:25:50 5 1005 138 23 W 0 63.9 404
16:28:47 5 1006 135 18 0 63.9 407
16:31:51 5 1005 117 16 NW 0 63.9 407
16:34:46 5 1005 110 14 W 0 64.6 407
16:37:48 5 1005 104 8 W 0 66 405
16:40:49 5 1005 92 10 NW 0 66.3 404
16:43:48 5 1006 78 15 NW 0 66.3 404
16:46:45 5 1005 65 11 W 0 66.9 407
16:49:46 5 1006 71 14 W 0 67.3 404
16:52:48 5 1005 71 14 SW 0 67.6 407
16:55:46 5 1005 70 6 W 0 68.4 407
16:58:49 5 1005 54 6 NW 0 69.2 407
17:01:49 5 1005 43 9 NW 0 70.5 407
17:04:47 5 1006 35 10 NW 0 71.3 407
17:07:48 5 1005 30 7 W 0 70.9 407
17:10:47 5 1006 20 27 NW 0 70.1 407
17:13:46 5 1005 19 7 SW 0 69.2 407
17:16:47 5 1006 14 16 SW 0 68.6 404
17:19:46 5 1005 11 19 W 0 68.1 407
17:22:47 5 1005 6 39 W 0 65 401
17:25:47 5 1006 4 18 W 0 64.9 405
17:28:47 5 1006 0 6 O 0 65.5 404
17:31:45 5 1005 0 21 NW 0 65.7 404
17:34:47 5 1005 0 8 W 0 66 404
17:37:48 5 1005 0 11 SW 0 66.5 407
17:40:50 5 1006 0 23 NW 0 66.7 405
17:43:47 5 1006 0 8 NW 0 66.8 407
17:46:47 5 1005 0 10 NW 0 67.8 404
17:49:48 5 1005 0 12 SW 0 68.1 407
17:52:47 5 1006 0 8 W 0 68.2 405
17:55:46 5 1006 0 10 NW 0 69.2 406
17:58:45 5 1006 0 3 W 0 70 407
18:01:48 5 1006 0 2 W 0 70.9 408
18:04:44 4 1006 0 4 O 0 71.8 407
18:07:43 4 1006 0 5 N 0 73 410
18:10:48 4 1006 0 10 W 0 74.2 407
18:13:45 4 1006 0 9 SW 0 74.7 404
18:16:46 4 1006 0 2 O 0 75.2 407
18:19:48 4 1005 0 5 SW 0 75.5 407
18:22:48 4 1006 0 6 NW 0 75.7 404
18:25:46 4 1005 0 3 NW 0 75.4 408
18:28:46 4 1006 0 3 N 0 75.6 405
18:31:49 4 1006 0 24 SO 0 75.7 404
18:34:46 4 1006 0 4 W 0 75.6 407
18:37:46 4 1005 0 5 S 0 75.8 408
18:40:46 4 1006 0 3 SW 0 76 402
18:43:47 4 1006 0 4 S 0 76.2 404
18:46:48 4 1006 0 0 NW 0 76.3 404
18:49:49 4 1006 0 16 SW 0 76.9 404
18:52:46 4 1006 0 4 O 0 77 404
18:55:45 4 1006 0 4 N 0 77.2 407
18:58:46 4 1006 0 4 SO 0 77.4 405
19:01:48 4 1006 0 11 W 0 77.3 405
19:04:44 4 1006 0 11 N 0 77.2 407
19:07:48 4 1006 0 9 W 0 77.3 405
19:10:46 4 1005 0 5 SW 0 77 404
19:13:47 4 1005 0 9 NW 0 76.4 404
19:16:46 4 1005 0 14 W 0 76.1 407
19:19:48 4 1005 0 2 SW 0 76.1 405
19:22:46 4 1006 0 5 SO 0 76.1 407
19:25:48 4 1006 0 11 NW 0 76.2 404
19:28:47 4 1006 0 7 SW 0 75.8 404
19:31:45 4 1006 0 1 W 0 75.3 405
19:34:48 4 1006 0 5 W 0 75.2 404
19:37:46 4 1005 0 15 W 0 74.9 407
19:40:47 4 1005 0 4 SW 0 73.8 404
19:43:45 4 1005 0 1 O 0 73.6 407
19:46:46 4 1006 0 7 SW 0 73.7 407
19:49:47 4 1005 0 14 W 0 73.8 405
19:52:46 4 1005 0 14 SW 0 73.9 407
19:55:46 4 1005 0 5 W 0 73.5 407
19:58:50 4 1006 0 13 NW 0 73.3 401
20:01:46 4 1005 0 7 S 0 73.2 407
20:04:46 4 1005 0 6 S 0 73.3 407
20:07:46 4 1005 0 4 W 0 73.4 404
20:10:47 4 1005 0 9 SW 0 73.6 407
20:13:46 4 1006 0 8 N 0 73.8 404
20:16:47 4 1006 0 6 SO 0 74.2 404
20:19:46 4 1005 0 10 SW 0 74.7 407
20:22:46 4 1005 0 3 NW 0 74.4 404
20:25:47 4 1005 0 18 W 0 74.3 407
20:28:48 4 1005 0 8 S 0 74 407
20:31:46 4 1004 0 11 S 0 74 404
20:34:48 4 1005 0 4 SW 0 74.1 404
20:37:46 4 1005 0 9 W 0 73.9 404
20:40:50 4 1005 0 8 W 0 73.9 404
20:43:45 4 1005 0 4 W 0 73.5 407
20:46:47 4 1005 0 2 NW 0 72.6 404
20:49:45 4 1005 0 7 W 0 71.4 406
20:52:45 4 1005 0 6 S 0 72.1 405
20:55:46 4 1005 0 11 W 0 71.4 407
20:58:46 4 1005 0 11 SW 0 70.9 406
21:01:47 4 1005 0 7 W 0 71.2 407
21:04:47 4 1005 0 5 SW 0 71.7 407
21:07:47 4 1005 0 2 SO 0 72.5 407
21:10:50 4 1006 0 7 W 0 72.6 407
21:13:45 4 1005 0 7 W 0 72.7 404
21:16:47 4 1005 0 7 SW 0 73.6 404
21:19:46 4 1005 0 4 SO 0 74.2 407
21:22:48 4 1004 0 3 SW 0 74.6 636
21:25:45 4 1004 0 3 SW 0 74.9 633
21:28:51 4 1004 0 6 NW 0 74.8 635
21:31:48 4 1004 0 10 SW 0 74.8 642
21:34:46 4 1004 0 3 S 0 75.3 641
21:37:46 4 1004 0 7 S 0 75.4 651
21:40:48 4 1005 0 5 SW 0 75.1 663
21:43:49 4 1004 0 4 SW 0 74.5 666
21:46:49 4 1004 0 4 NO 0 74.4 669
21:49:47 4 1004 0 11 NW 0 74.2 667
21:52:49 4 1004 0 12 NW 0 74.3 669
21:55:46 4 1005 0 6 N 0 74.4 674
21:58:46 4 1004 0 3 SW 0 74.7 677
22:01:48 4 1004 0 5 SW 0 75.1 687
22:04:47 4 1004 0 3 SW 0 75.3 691
22:07:47 4 1004 0 4 SW 0 75.5 695
22:10:46 4 1003 0 4 SW 0 75.6 684
22:13:46 4 1004 0 5 S 0 75.7 695
22:16:47 4 1003 0 5 S 0 76.2 697
22:19:46 4 1003 0 5 W 0 76.4 700
22:22:48 4 1003 0 6 SO 0 76.6 709
22:25:45 4 1004 0 6 W 0 76.6 706
22:28:49 3 1004 0 7 SW 0 76.9 698
22:31:48 3 1004 0 10 W 0 77.4 706
22:34:46 3 1004 0 7 SW 0 77.6 709
22:37:44 3 1003 0 7 0 77.9 712
22:40:44 3 1003 0 7 W 0 78.2 715
22:43:48 3 1003 0 3 S 0 78.5 722
22:46:47 3 1003 0 5 W 0 78.9 718
22:49:48 3 1003 0 7 S 0 79.2 721
22:52:47 3 1003 0 8 SW 0 79.4 717
22:55:48 3 1003 0 2 SO 0 79.7 715
22:58:48 3 1002 0 9 W 0 80 713
23:01:45 3 1003 0 5 W 0 80.3 709
23:04:47 3 1002 0 7 W 0 80.6 697
23:07:47 3 1002 0 3 N 0 80.8 693
23:10:48 3 1002 0 8 SW 0 80.9 697
23:13:50 3 1002 0 2 NW 0 80.9 699
23:16:48 3 1002 0 2 SW 0 81 699
23:19:47 3 1002 0 2 S 0 81.2 699
23:22:46 3 1003 0 4 S 0 81.4 700
23:25:48 3 1002 0 4 SW 0 81.5 707
23:28:47 3 1002 0 3 S 0 81.8 702
23:31:50 3 1002 0 3 NW 0 81.8 713
23:34:46 3 1002 0 2 W 0 81.8 712
23:37:48 3 1002 0 1 SW 0 81.6 715
23:40:49 3 1002 0 1 W 0 81.6 709
23:43:47 3 1002 0 0 SO 0 81.6 706
23:46:46 3 1002 0 2 SW 0 81.6 700
23:49:47 3 1002 0 1 SW 0 81.6 700
23:52:47 3 1002 0 1 SW 0 81.6 702
23:55:46 3 1002 0 10 SW 0 81.5 706
23:58:47 3 1002 0 0 NW 0 81.5 708

Letzte Änderung : 22-Jul-2022
Copyright Jens Köhler, Wolfsburg, Obere Dorfstraße 10d